Queralbs





Hora UTC 06:10
Temperatura 10.9 ºC
Humitat 62.0 %
Pressió 1015.7 hPa
Pluja 0.0 mm
Velocitat vent 0.0 km/h
Direcció vent SSW
Radiació solar 295.0 W/m²

Dades diàries 2020-05-30



Hora UTC (hivern +1h; estiu +2h)
Temperatura (ºC) Humitat (%) Pressió (hPa) Velocitat vent (km/h) Precipitació (mm) Radiació solar (W/m²)
Hora UTC Aire Humitat Pressió Vel. Dir. Vel. Max Dir. Intent. màx 5 min. Rad. Sol.
00:05 10.8 69.0 1016.4 0.0 SE 0.0 0.0 0.0
00:10 10.8 69.0 1016.3 0.0 SE 0.0 0.0 0.0
00:10 10.7 69.0 1016.4 0.0 SE 0.0 0.0 0.0
00:20 10.7 69.0 1016.3 0.0 SE 0.0 0.0 0.0
00:25 10.7 69.0 1016.2 0.0 SE 0.0 0.0 0.0
00:30 10.7 69.0 1016.3 0.0 SE 0.0 0.0 0.0
00:35 10.6 69.0 1016.3 0.0 SE 0.0 0.0 0.0
00:40 10.5 68.0 1016.3 0.0 SE 0.0 0.0 0.0
00:45 10.6 68.0 1016.4 0.0 SE 0.0 0.0 0.0
00:50 10.5 69.0 1016.4 0.0 SE 0.0 0.0 0.0
00:55 10.3 68.0 1016.4 1.6 SE 3.2 0.0 0.0
01:00 10.2 68.0 1016.4 1.6 SE 3.2 0.0 0.0
01:05 10.1 69.0 1016.4 0.0 SE 3.2 0.0 0.0
01:10 9.9 69.0 1016.3 0.0 SE 3.2 0.0 0.0
01:15 9.8 69.0 1016.3 0.0 SE 0.0 0.0 0.0
01:20 9.7 70.0 1016.3 0.0 SE 0.0 0.0 0.0
01:25 9.6 69.0 1016.2 0.0 SE 0.0 0.0 0.0
01:30 9.4 69.0 1016.2 0.0 SE 0.0 0.0 0.0
01:35 9.3 70.0 1016.1 0.0 SE 0.0 0.0 0.0
01:40 9.2 69.0 1016.1 0.0 SE 0.0 0.0 0.0
01:45 9.2 69.0 1016.1 0.0 SE 0.0 0.0 0.0
01:50 9.1 69.0 1016.0 0.0 SE 0.0 0.0 0.0
01:55 9.1 69.0 1016.2 0.0 SE 0.0 0.0 0.0
02:00 9.0 69.0 1016.1 0.0 SE 1.6 0.0 0.0
02:05 8.9 69.0 1016.0 0.0 SE 1.6 0.0 0.0
02:10 8.8 69.0 1016.1 0.0 SE 0.0 0.0 0.0
02:15 8.8 68.0 1016.0 0.0 SE 0.0 0.0 0.0
02:20 8.8 68.0 1016.0 0.0 SE 0.0 0.0 0.0
02:25 8.8 68.0 1016.0 0.0 SE 0.0 0.0 0.0
02:30 8.9 67.0 1015.9 0.0 SE 0.0 0.0 0.0
02:35 9.0 67.0 1015.8 0.0 SE 0.0 0.0 0.0
02:40 8.9 67.0 1015.8 0.0 SE 0.0 0.0 0.0
02:45 8.9 67.0 1015.7 0.0 SE 0.0 0.0 0.0
02:50 8.8 66.0 1015.7 0.0 SE 0.0 0.0 0.0
02:55 8.8 66.0 1015.7 0.0 SE 0.0 0.0 0.0
03:00 8.7 66.0 1015.7 0.0 SE 0.0 0.0 0.0
03:05 8.7 66.0 1015.7 0.0 SE 0.0 0.0 0.0
03:10 8.7 65.0 1015.5 0.0 SE 0.0 0.0 0.0
03:15 8.7 65.0 1015.5 0.0 SE 0.0 0.0 0.0
03:20 8.7 66.0 1015.5 0.0 SE 0.0 0.0 0.0
03:25 8.6 65.0 1015.5 0.0 SE 3.2 0.0 0.0
03:30 8.6 65.0 1015.5 1.6 SE 3.2 0.0 0.0
03:35 8.6 65.0 1015.7 0.0 SE 1.6 0.0 0.0
03:40 8.5 66.0 1015.6 0.0 SE 0.0 0.0 0.0
03:45 8.4 66.0 1015.6 0.0 SE 0.0 0.0 0.0
03:50 8.3 66.0 1015.7 0.0 SE 0.0 0.0 0.0
03:55 8.2 66.0 1015.6 0.0 SE 0.0 0.0 0.0
04:00 8.2 66.0 1015.6 0.0 SE 0.0 0.0 0.0
04:05 8.1 66.0 1015.6 0.0 SE 0.0 0.0 0.0
04:10 8.1 67.0 1015.6 0.0 SE 1.6 0.0 0.0
04:15 8.0 67.0 1015.5 0.0 SE 1.6 0.0 0.0
04:20 8.0 67.0 1015.6 0.0 SE 1.6 0.0 0.0
04:25 7.9 67.0 1015.6 0.0 SE 1.6 0.0 5.0
04:30 7.9 67.0 1015.6 0.0 SE 1.6 0.0 9.0
04:35 7.8 67.0 1015.6 1.6 SE 1.6 0.0 11.0
04:40 7.9 67.0 1015.5 0.0 SE 3.2 0.0 12.0
04:45 7.9 67.0 1015.6 1.6 SE 3.2 0.0 14.0
04:50 8.1 67.0 1015.6 0.0 SE 1.6 0.0 14.0
04:55 8.1 66.0 1015.6 0.0 SE 1.6 0.0 16.0
05:00 8.1 66.0 1015.6 0.0 SE 1.6 0.0 18.0
05:05 8.1 66.0 1015.7 0.0 SE 1.6 0.0 19.0
05:10 8.2 66.0 1015.7 0.0 SE 1.6 0.0 21.0
05:15 8.2 66.0 1015.6 1.6 SE 1.6 0.0 21.0
05:20 8.3 67.0 1015.7 0.0 SE 3.2 0.0 23.0
05:25 8.3 67.0 1015.6 0.0 SE 3.2 0.0 25.0
05:30 8.4 67.0 1015.6 0.0 SE 1.6 0.0 26.0
05:35 8.4 67.0 1015.7 1.6 WSW 1.6 0.0 28.0
05:40 8.3 67.0 1015.7 0.0 WSW 3.2 0.0 30.0
05:45 8.6 67.0 1015.6 0.0 WSW 1.6 0.0 156.0
05:50 8.9 66.0 1015.6 0.0 WSW 3.2 0.0 218.0
05:55 9.7 66.0 1015.6 1.6 WSW 3.2 0.0 237.0
06:00 10.4 64.0 1015.5 1.6 SSW 3.2 0.0 258.0
06:05 10.7 63.0 1015.6 1.6 SSW 3.2 0.0 276.0
06:10 10.9 62.0 1015.7 0.0 SSW 3.2 0.0 295.0
Màxima 12.0 70.0 1016.4 1.6 SSW 3.2 0.0 295.0
Mínima 7.8 62.0 1015.5
Total 0.0